EIN2MW EIDW-EGCC

Flight info

Callsign EIN2MW
Flight time 0h 32m
Altitude 23000
Route BOFUM3J BOFUM Q37 MALUD
Aircraft A320/M-SDE3FGHIRWY/LB1

Departure

Time 2026-05-06 20:12
Airport Dublin Airport (EIDW)

Arrival

Time 2026-05-06 20:44
Airport Manchester Airport (EGCC)
Time Latitude Longitude Altitude Speed Heading
2026-05-06 19:42 53.42587 -6.24505 212 ft 0 kts 306°
2026-05-06 19:55 53.42578 -6.24485 216 ft 4 kts 308°
2026-05-06 19:55 53.42560 -6.24453 211 ft 4 kts 330°
2026-05-06 19:56 53.42542 -6.24443 212 ft 4 kts 348°
2026-05-06 19:56 53.42522 -6.24427 217 ft 4 kts 287°
2026-05-06 19:56 53.42527 -6.24402 213 ft 4 kts 216°
2026-05-06 19:56 53.42538 -6.24389 215 ft 0 kts 216°
2026-05-06 20:03 53.42528 -6.24401 214 ft 6 kts 216°
2026-05-06 20:03 53.42497 -6.24442 215 ft 6 kts 221°
2026-05-06 20:03 53.42470 -6.24491 211 ft 6 kts 231°
2026-05-06 20:04 53.42445 -6.24560 214 ft 8 kts 242°
2026-05-06 20:04 53.42420 -6.24643 215 ft 8 kts 243°
2026-05-06 20:04 53.42390 -6.24720 214 ft 10 kts 230°
2026-05-06 20:04 53.42332 -6.24825 211 ft 15 kts 225°
2026-05-06 20:05 53.42250 -6.24966 211 ft 17 kts 227°
2026-05-06 20:05 53.42209 -6.25171 215 ft 22 kts 270°
2026-05-06 20:05 53.42217 -6.25386 211 ft 20 kts 275°
2026-05-06 20:05 53.42231 -6.25643 211 ft 24 kts 274°
2026-05-06 20:06 53.42247 -6.25936 211 ft 25 kts 276°
2026-05-06 20:06 53.42266 -6.26257 218 ft 28 kts 276°
2026-05-06 20:06 53.42284 -6.26564 211 ft 28 kts 277°
2026-05-06 20:06 53.42301 -6.26878 211 ft 26 kts 274°
2026-05-06 20:07 53.42315 -6.27174 211 ft 25 kts 275°
2026-05-06 20:07 53.42332 -6.27440 211 ft 22 kts 275°
2026-05-06 20:07 53.42345 -6.27721 211 ft 22 kts 276°
2026-05-06 20:07 53.42360 -6.27987 211 ft 24 kts 275°
2026-05-06 20:08 53.42371 -6.28188 211 ft 12 kts 274°
2026-05-06 20:08 53.42374 -6.28235 214 ft 0 kts 275°
2026-05-06 20:08 53.42374 -6.28237 214 ft 1 kts 275°
2026-05-06 20:08 53.42375 -6.28266 211 ft 0 kts 275°
2026-05-06 20:09 53.42376 -6.28281 218 ft 0 kts 275°
2026-05-06 20:09 53.42376 -6.28282 218 ft 1 kts 275°
2026-05-06 20:09 53.42372 -6.28297 211 ft 1 kts 227°
2026-05-06 20:09 53.42358 -6.28308 217 ft 4 kts 208°
2026-05-06 20:10 53.42322 -6.28335 213 ft 7 kts 200°
2026-05-06 20:10 53.42296 -6.28316 211 ft 7 kts 143°
2026-05-06 20:10 53.42227 -6.28232 218 ft 12 kts 146°
2026-05-06 20:10 53.42200 -6.28161 212 ft 2 kts 95°
2026-05-06 20:11 53.42199 -6.28157 212 ft 0 kts 99°
2026-05-06 20:11 53.42198 -6.28149 212 ft 3 kts 99°
2026-05-06 20:11 53.42187 -6.28047 216 ft 26 kts 99°
2026-05-06 20:11 53.42146 -6.27288 210 ft 102 kts 95°
2026-05-06 20:12 53.42057 -6.25763 252 ft 154 kts 97°
2026-05-06 20:12 53.41959 -6.24027 985 ft 148 kts 97°
2026-05-06 20:12 53.41867 -6.22305 1673 ft 151 kts 98°
2026-05-06 20:12 53.41764 -6.20425 2114 ft 171 kts 97°
2026-05-06 20:13 53.41648 -6.18359 2630 ft 184 kts 97°
2026-05-06 20:13 53.41524 -6.16142 3163 ft 199 kts 97°
2026-05-06 20:13 53.41388 -6.13723 3629 ft 217 kts 97°
2026-05-06 20:13 53.41238 -6.11091 4060 ft 239 kts 96°
2026-05-06 20:14 53.41078 -6.08217 4582 ft 262 kts 96°
2026-05-06 20:14 53.40911 -6.05112 5412 ft 272 kts 94°
2026-05-06 20:14 53.41162 -6.01947 6353 ft 279 kts 70°
2026-05-06 20:14 53.41901 -5.98898 7289 ft 283 kts 67°
2026-05-06 20:15 53.42663 -5.95828 8236 ft 287 kts 67°
2026-05-06 20:15 53.43438 -5.92685 8792 ft 293 kts 68°
2026-05-06 20:15 53.44219 -5.89491 9472 ft 297 kts 68°
2026-05-06 20:15 53.45004 -5.86264 10346 ft 305 kts 68°
2026-05-06 20:16 53.45829 -5.82869 10678 ft 329 kts 68°
2026-05-06 20:16 53.46716 -5.79201 11124 ft 346 kts 68°
2026-05-06 20:16 53.47631 -5.75403 11867 ft 353 kts 68°
2026-05-06 20:16 53.48560 -5.71540 12654 ft 359 kts 68°
2026-05-06 20:17 53.49501 -5.67621 13425 ft 364 kts 68°
2026-05-06 20:17 53.50444 -5.63703 14159 ft 369 kts 68°
2026-05-06 20:17 53.51412 -5.59674 14858 ft 373 kts 67°
2026-05-06 20:17 53.52389 -5.55596 15575 ft 377 kts 67°
2026-05-06 20:18 53.53340 -5.51460 16281 ft 381 kts 72°
2026-05-06 20:18 53.53749 -5.47057 17069 ft 381 kts 89°
2026-05-06 20:18 53.53594 -5.42608 17900 ft 382 kts 95°
2026-05-06 20:18 53.53411 -5.38174 18578 ft 385 kts 94°
2026-05-06 20:19 53.53271 -5.33650 19210 ft 387 kts 92°
2026-05-06 20:19 53.53160 -5.29080 19846 ft 390 kts 92°
2026-05-06 20:19 53.53060 -5.24497 20483 ft 393 kts 91°
2026-05-06 20:19 53.52959 -5.19886 21125 ft 395 kts 91°
2026-05-06 20:20 53.52851 -5.15262 21774 ft 398 kts 92°
2026-05-06 20:20 53.52727 -5.10647 22401 ft 401 kts 92°
2026-05-06 20:20 53.52583 -5.05940 22881 ft 404 kts 92°
2026-05-06 20:20 53.52430 -5.01244 22991 ft 398 kts 92°
2026-05-06 20:21 53.52277 -4.96661 23004 ft 388 kts 92°
2026-05-06 20:21 53.52127 -4.92200 23012 ft 385 kts 92°
2026-05-06 20:21 53.51977 -4.87698 23006 ft 384 kts 92°
2026-05-06 20:21 53.51829 -4.83216 23006 ft 384 kts 92°
2026-05-06 20:22 53.51683 -4.78722 23006 ft 384 kts 92°
2026-05-06 20:22 53.51536 -4.74242 23013 ft 384 kts 92°
2026-05-06 20:22 53.51385 -4.69757 23009 ft 384 kts 92°
2026-05-06 20:22 53.51232 -4.65279 23013 ft 384 kts 92°
2026-05-06 20:23 53.51075 -4.60795 23013 ft 384 kts 92°
2026-05-06 20:23 53.50920 -4.56362 23011 ft 384 kts 92°
2026-05-06 20:23 53.50761 -4.51861 23015 ft 384 kts 92°
2026-05-06 20:23 53.50599 -4.47363 23014 ft 385 kts 92°
2026-05-06 20:24 53.50437 -4.42869 23013 ft 385 kts 92°
2026-05-06 20:24 53.50276 -4.38449 23012 ft 384 kts 92°
2026-05-06 20:24 53.50110 -4.33961 23015 ft 384 kts 92°
2026-05-06 20:24 53.49943 -4.29468 23012 ft 384 kts 93°
2026-05-06 20:25 53.49775 -4.24984 23013 ft 384 kts 93°
2026-05-06 20:25 53.49605 -4.20503 23012 ft 384 kts 93°
2026-05-06 20:25 53.49432 -4.16007 23018 ft 384 kts 93°
2026-05-06 20:25 53.49259 -4.11565 23025 ft 392 kts 93°
2026-05-06 20:26 53.49077 -4.06938 23012 ft 400 kts 93°
2026-05-06 20:26 53.48894 -4.02328 22453 ft 390 kts 93°
2026-05-06 20:26 53.48692 -3.97796 21433 ft 387 kts 97°
2026-05-06 20:26 53.48075 -3.93381 20874 ft 386 kts 109°
2026-05-06 20:27 53.47205 -3.89193 20263 ft 380 kts 109°
2026-05-06 20:27 53.46349 -3.85035 19729 ft 374 kts 109°
2026-05-06 20:27 53.45502 -3.80906 19263 ft 371 kts 109°
2026-05-06 20:27 53.44672 -3.76865 18809 ft 369 kts 110°
2026-05-06 20:28 53.43831 -3.72792 18363 ft 367 kts 110°
2026-05-06 20:28 53.42986 -3.68738 17860 ft 365 kts 110°
2026-05-06 20:28 53.42160 -3.64780 17420 ft 362 kts 110°
2026-05-06 20:28 53.41434 -3.60765 16980 ft 359 kts 102°
2026-05-06 20:29 53.41151 -3.56621 16524 ft 357 kts 94°
2026-05-06 20:29 53.40977 -3.52470 16066 ft 356 kts 94°
2026-05-06 20:29 53.40798 -3.48333 15607 ft 354 kts 94°
2026-05-06 20:29 53.40616 -3.44208 15155 ft 353 kts 94°
2026-05-06 20:30 53.40434 -3.40160 14714 ft 352 kts 94°
2026-05-06 20:30 53.40059 -3.31985 13812 ft 350 kts 94°
2026-05-06 20:30 53.39869 -3.27950 13541 ft 342 kts 94°
2026-05-06 20:31 53.39685 -3.24045 13286 ft 327 kts 94°
2026-05-06 20:31 53.39513 -3.20339 12675 ft 320 kts 94°
2026-05-06 20:31 53.39387 -3.16641 12073 ft 316 kts 87°
2026-05-06 20:31 53.39704 -3.13012 11686 ft 313 kts 73°
2026-05-06 20:32 53.40519 -3.09651 11339 ft 307 kts 59°
2026-05-06 20:32 53.41580 -3.06578 10871 ft 301 kts 58°
2026-05-06 20:32 53.42621 -3.03586 10469 ft 299 kts 58°
2026-05-06 20:32 53.43665 -3.00582 10069 ft 298 kts 58°
2026-05-06 20:33 53.44706 -2.97580 9607 ft 297 kts 58°
2026-05-06 20:33 53.45738 -2.94598 9196 ft 295 kts 58°
2026-05-06 20:33 53.46766 -2.91630 8801 ft 292 kts 58°
2026-05-06 20:33 53.47785 -2.88680 8414 ft 290 kts 58°
2026-05-06 20:34 53.48791 -2.85762 8024 ft 287 kts 58°
2026-05-06 20:34 53.49775 -2.82899 7642 ft 285 kts 59°
2026-05-06 20:34 53.50764 -2.80016 7274 ft 283 kts 59°
2026-05-06 20:34 53.51660 -2.77155 7111 ft 270 kts 71°
2026-05-06 20:35 53.51863 -2.74084 6922 ft 260 kts 100°
2026-05-06 20:35 53.51314 -2.71194 7070 ft 274 kts 111°
2026-05-06 20:35 53.50654 -2.68124 7225 ft 282 kts 110°
2026-05-06 20:35 53.49993 -2.65004 7307 ft 283 kts 110°
2026-05-06 20:36 53.49337 -2.61910 6817 ft 279 kts 110°
2026-05-06 20:36 53.48688 -2.58834 6207 ft 276 kts 110°
2026-05-06 20:36 53.48043 -2.55784 6053 ft 279 kts 110°
2026-05-06 20:36 53.47080 -2.52987 6026 ft 278 kts 135°
2026-05-06 20:37 53.45485 -2.51234 6039 ft 275 kts 163°
2026-05-06 20:37 53.43629 -2.50886 6056 ft 271 kts 186°
2026-05-06 20:37 53.41764 -2.51225 6046 ft 263 kts 190°
2026-05-06 20:37 53.40040 -2.51593 6042 ft 240 kts 190°
2026-05-06 20:38 53.38396 -2.51944 5595 ft 235 kts 190°
2026-05-06 20:38 53.36781 -2.52312 5050 ft 232 kts 190°
2026-05-06 20:38 53.35200 -2.52695 4621 ft 224 kts 190°
2026-05-06 20:38 53.33712 -2.53092 4494 ft 212 kts 190°
2026-05-06 20:39 53.32276 -2.53499 4253 ft 207 kts 190°
2026-05-06 20:39 53.30865 -2.53914 3833 ft 204 kts 190°
2026-05-06 20:39 53.29516 -2.54338 3683 ft 189 kts 190°
2026-05-06 20:39 53.28261 -2.54591 3399 ft 181 kts 169°
2026-05-06 20:40 53.27133 -2.53763 3048 ft 177 kts 144°
2026-05-06 20:40 53.26306 -2.52298 3011 ft 176 kts 112°
2026-05-06 20:40 53.26184 -2.50266 3011 ft 180 kts 85°
2026-05-06 20:40 53.26374 -2.48206 2883 ft 178 kts 81°
2026-05-06 20:41 53.26621 -2.46175 2532 ft 177 kts 81°
2026-05-06 20:41 53.26926 -2.44208 2293 ft 176 kts 69°
2026-05-06 20:41 53.27623 -2.42518 2024 ft 176 kts 54°
2026-05-06 20:41 53.28378 -2.40988 1789 ft 163 kts 55°
2026-05-06 20:42 53.29047 -2.39623 1572 ft 143 kts 55°
2026-05-06 20:42 53.29644 -2.38397 1381 ft 133 kts 56°
2026-05-06 20:42 53.30219 -2.37212 1196 ft 130 kts 55°
2026-05-06 20:42 53.30785 -2.36045 1008 ft 129 kts 54°
2026-05-06 20:43 53.31350 -2.34880 820 ft 128 kts 54°
2026-05-06 20:43 53.31907 -2.33731 647 ft 126 kts 55°
2026-05-06 20:43 53.32460 -2.32588 469 ft 127 kts 54°
2026-05-06 20:43 53.33018 -2.31433 319 ft 128 kts 53°
2026-05-06 20:44 53.33557 -2.30296 231 ft 113 kts 53°
2026-05-06 20:44 53.33956 -2.29493 228 ft 65 kts 51°
2026-05-06 20:44 53.34171 -2.29044 232 ft 44 kts 51°
2026-05-06 20:44 53.34357 -2.28689 224 ft 39 kts 41°
2026-05-06 20:45 53.34560 -2.28502 229 ft 28 kts 23°
2026-05-06 20:45 53.34725 -2.28361 230 ft 23 kts 59°
2026-05-06 20:45 53.34819 -2.28178 231 ft 21 kts 52°
2026-05-06 20:45 53.34913 -2.27983 229 ft 20 kts 50°
2026-05-06 20:46 53.35003 -2.27798 229 ft 22 kts 52°
2026-05-06 20:46 53.35097 -2.27600 234 ft 22 kts 50°
2026-05-06 20:46 53.35190 -2.27409 237 ft 19 kts 51°
2026-05-06 20:46 53.35276 -2.27232 240 ft 18 kts 43°
2026-05-06 20:47 53.35338 -2.27189 244 ft 0 kts
2026-05-06 20:47 53.35377 -2.27204 246 ft 11 kts 341°
2026-05-06 20:48 53.35430 -2.27267 247 ft 8 kts 321°
2026-05-06 20:48 53.35466 -2.27321 248 ft 6 kts 315°
2026-05-06 20:48 53.35495 -2.27363 248 ft 8 kts 323°
2026-05-06 20:48 53.35563 -2.27445 246 ft 15 kts 323°
2026-05-06 20:49 53.35639 -2.27541 246 ft 8 kts 321°
2026-05-06 20:49 53.35690 -2.27607 247 ft 9 kts 323°
2026-05-06 20:49 53.35746 -2.27655 249 ft 10 kts 340°
2026-05-06 20:49 53.35808 -2.27716 252 ft 10 kts 313°
2026-05-06 20:50 53.35861 -2.27733 255 ft 8 kts 13°
2026-05-06 20:50 53.35932 -2.27727 255 ft 13 kts 358°
2026-05-06 20:50 53.36024 -2.27803 255 ft 17 kts 325°
2026-05-06 20:50 53.36117 -2.27923 255 ft 15 kts 321°
2026-05-06 20:51 53.36209 -2.28055 255 ft 19 kts 315°
2026-05-06 20:51 53.36313 -2.28229 255 ft 23 kts 314°
2026-05-06 20:51 53.36400 -2.28401 255 ft 19 kts 296°
2026-05-06 20:51 53.36477 -2.28582 255 ft 20 kts 311°
2026-05-06 20:52 53.36572 -2.28744 255 ft 15 kts 312°
2026-05-06 20:52 53.36653 -2.28742 255 ft 9 kts 45°
2026-05-06 20:52 53.36667 -2.28663 255 ft 7 kts 127°
2026-05-06 20:52 53.36643 -2.28620 255 ft 1 kts 134°
2026-05-06 20:53 53.36640 -2.28615 255 ft 0 kts 134°